TimeCDT,TemperatureF,Dew PointF,Humidity,Sea Level PressureIn,VisibilityMPH,Wind Direction,Wind SpeedMPH,Gust SpeedMPH,PrecipitationIn,Events,Conditions,WindDirDegrees,DateUTC
12:53 AM,81.0,59.0,47,29.78,10.0,SSE,13.8,-,N/A,,Clear,160,2013-06-23 05:53:00
1:53 AM,80.1,59.0,48,29.78,10.0,SSE,12.7,-,N/A,,Clear,160,2013-06-23 06:53:00
2:53 AM,77.0,60.1,56,29.79,10.0,SSE,9.2,-,N/A,,Clear,150,2013-06-23 07:53:00
3:53 AM,73.9,61.0,64,29.80,10.0,SE,9.2,-,N/A,,Clear,140,2013-06-23 08:53:00
4:53 AM,75.0,61.0,62,29.80,10.0,SSE,11.5,-,N/A,,Clear,160,2013-06-23 09:53:00
5:53 AM,75.0,61.0,62,29.80,10.0,SSE,9.2,-,N/A,,Clear,150,2013-06-23 10:53:00
6:53 AM,73.9,61.0,64,29.81,10.0,SSE,8.1,-,N/A,,Clear,160,2013-06-23 11:53:00
7:53 AM,79.0,62.1,56,29.82,10.0,South,16.1,23.0,N/A,,Clear,170,2013-06-23 12:53:00
8:53 AM,82.9,63.0,51,29.83,10.0,South,19.6,28.8,N/A,,Clear,180,2013-06-23 13:53:00
9:53 AM,86.0,60.1,41,29.81,10.0,South,25.3,34.5,N/A,,Clear,170,2013-06-23 14:53:00
10:53 AM,89.1,55.9,32,29.81,10.0,South,24.2,34.5,N/A,,Clear,190,2013-06-23 15:53:00
11:53 AM,91.0,55.9,30,29.81,10.0,South,21.9,32.2,N/A,,Clear,180,2013-06-23 16:53:00
12:53 PM,93.9,55.0,27,29.79,10.0,South,26.5,34.5,N/A,,Clear,180,2013-06-23 17:53:00
1:53 PM,97.0,51.1,21,29.77,10.0,South,26.5,33.4,N/A,,Clear,170,2013-06-23 18:53:00
2:53 PM,100.0,50.0,18,29.75,10.0,South,25.3,33.4,N/A,,Clear,180,2013-06-23 19:53:00
3:53 PM,99.0,51.1,20,29.74,10.0,South,24.2,36.8,N/A,,Clear,180,2013-06-23 20:53:00
4:53 PM,99.0,53.1,21,29.73,10.0,South,21.9,32.2,N/A,,Clear,180,2013-06-23 21:53:00
5:53 PM,99.0,54.0,22,29.73,10.0,South,26.5,36.8,N/A,,Clear,170,2013-06-23 22:53:00
6:53 PM,97.0,55.9,25,29.72,10.0,South,27.6,35.7,N/A,,Clear,170,2013-06-23 23:53:00
7:53 PM,93.9,55.9,28,29.73,10.0,SSE,20.7,28.8,N/A,,Clear,160,2013-06-24 00:53:00
8:53 PM,90.0,54.0,29,29.75,10.0,SSE,15.0,-,N/A,,Clear,150,2013-06-24 01:53:00
9:53 PM,88.0,54.0,31,29.76,10.0,SSE,18.4,-,N/A,,Clear,160,2013-06-24 02:53:00
10:53 PM,87.1,52.0,30,29.79,10.0,SSE,18.4,-,N/A,,Clear,160,2013-06-24 03:53:00
11:53 PM,82.9,55.9,39,29.81,10.0,SSE,15.0,-,N/A,,Clear,160,2013-06-24 04:53:00